GEFSNE_500_meanwind_330.txt.gz
Wind_Speed
18 18 18 17 18 18 18 18 18 18 19 20 20 20 21 21 21 21 21 21 22 23 24 24 24 24 24 24 24 24 24 24 24 23 23 23 22 22
18 18 18 18 18 18 18 19 19 19 20 20 21 22 21 21 21 21 21 21 22 23 24 25 25 25 25 25 25 25 25 25 25 24 24 24 24 23
19 18 19 19 19 19 19 20 20 20 21 21 21 21 22 22 22 22 22 21 22 23 24 25 26 26 26 26 26 27 26 26 26 26 26 26 25 25
20 19 19 19 19 19 20 20 20 20 20 21 21 21 22 22 23 23 23 22 23 23 23 24 25 26 27 28 28 28 28 28 28 28 27 27 26 26
20 20 20 20 19 19 20 20 21 21 21 21 22 22 23 23 23 24 24 24 24 25 25 25 26 26 28 28 28 28 28 29 29 29 28 28 28 27
21 21 21 20 21 21 20 21 21 21 21 22 23 23 24 24 25 25 25 26 26 26 27 27 28 28 28 27 28 28 28 29 29 29 29 29 28 28
22 22 22 22 22 22 22 22 22 22 23 23 24 24 25 25 26 27 27 27 28 28 28 29 29 29 29 28 28 29 29 29 28 28 29 29 29 29
23 24 24 24 24 24 24 24 24 24 25 25 26 26 26 26 27 28 28 28 29 29 29 29 29 29 29 28 28 28 29 28 28 28 28 29 29 29
25 25 25 26 25 25 26 26 26 26 27 27 27 27 27 28 29 29 29 30 30 30 30 29 30 29 29 28 28 28 28 28 28 28 28 28 29 29
26 26 26 26 26 26 26 27 27 28 28 28 28 28 29 29 30 30 31 31 32 31 31 30 30 30 29 29 29 29 28 29 29 29 29 29 29 30
27 27 27 27 27 27 28 28 28 29 29 30 30 31 31 31 31 31 32 33 32 31 32 31 31 30 30 29 29 29 29 29 29 29 29 30 30 30
28 28 28 28 28 28 28 29 29 29 30 31 31 32 32 32 33 33 34 34 33 32 32 32 31 31 30 30 30 30 30 30 29 29 30 30 30 30
28 29 29 29 29 29 29 29 29 30 30 30 31 32 32 33 33 34 34 34 33 32 32 33 32 32 31 31 30 30 30 30 30 29 29 30 30 31
28 29 29 29 29 30 30 30 30 31 31 31 32 33 33 33 33 34 34 34 34 33 33 33 32 32 32 32 31 30 30 30 30 29 29 30 30 30
30 29 29 29 30 30 30 31 31 32 32 33 32 33 33 33 34 34 34 34 33 33 32 32 32 31 31 31 31 31 31 30 29 30 30 30 30 30
31 31 30 30 30 31 31 32 32 32 32 32 32 32 32 33 33 33 33 33 33 33 32 32 31 31 31 31 31 31 31 31 31 31 30 30 30 31
32 32 31 31 31 31 32 32 32 32 32 32 32 32 32 32 32 32 32 32 31 32 31 31 30 30 30 30 30 30 31 31 31 31 31 30 30 30
31 31 31 31 31 31 31 31 32 32 31 31 32 32 32 31 31 31 31 30 30 30 30 30 29 30 29 29 29 29 29 30 30 30 30 31 31 31
32 32 32 32 32 31 31 31 31 31 30 31 31 31 30 30 30 30 30 29 29 28 28 28 28 28 28 28 28 28 28 28 29 29 30 30 31 31
33 33 33 32 32 31 31 31 30 29 29 30 30 30 29 29 28 28 28 28 28 28 28 28 27 27 27 27 27 26 27 27 27 28 29 29 30 30
33 32 32 31 31 30 29 28 28 28 28 28 28 27 27 27 27 27 27 27 28 27 27 27 28 28 28 27 27 26 26 27 27 27 28 28 28 28
33 32 31 30 29 29 28 27 27 27 27 27 27 26 26 26 26 26 26 26 26 26 26 26 27 27 28 27 27 26 26 26 27 27 27 26 26 26
31 30 30 29 29 29 29 28 27 27 27 26 26 25 25 25 25 25 24 24 25 25 25 25 25 26 26 26 25 25 25 25 26 26 26 25 26 26

GEFSNE_500_meanwind_336.txt.gz
Wind_Speed
19 19 19 20 20 20 19 20 19 19 18 19 19 19 20 20 20 20 20 20 20 20 21 21 21 21 22 23 23 23 24 24 23 23 23 22 21 21
20 20 20 21 21 20 20 19 19 19 19 20 20 21 21 21 22 22 22 21 21 21 22 22 22 22 22 23 24 24 25 25 25 24 23 23 22 22
21 21 21 22 22 21 20 20 20 21 21 21 21 21 22 22 23 23 23 23 23 23 23 23 23 23 23 23 24 24 25 25 26 26 25 24 24 24
22 22 22 22 22 22 22 22 22 22 22 22 22 22 22 23 23 24 24 23 24 24 25 24 24 24 24 24 24 24 25 25 25 26 26 26 25 25
23 23 23 23 23 23 23 23 23 23 23 23 23 23 23 23 24 25 25 25 25 25 26 26 26 26 26 26 25 25 25 25 26 26 27 27 27 27
25 25 25 24 24 24 23 23 23 24 24 25 25 25 25 25 25 25 25 25 25 26 27 27 27 27 27 27 26 26 27 27 27 27 27 28 29 29
26 26 26 26 26 25 25 24 24 24 25 26 26 26 27 27 27 27 27 27 27 27 27 28 28 28 28 28 28 27 27 27 27 28 28 28 29 29
27 27 27 26 26 26 26 26 26 25 26 27 27 27 27 27 28 28 28 28 27 27 27 28 28 28 29 29 28 27 26 27 27 27 28 28 28 28
28 28 27 27 27 27 26 26 27 27 27 27 27 28 28 29 29 29 28 28 28 28 28 28 29 29 29 29 29 28 27 27 27 27 27 27 27 28
28 28 28 29 28 28 28 28 28 28 28 28 28 28 29 29 30 30 30 29 29 29 29 29 29 30 29 29 29 29 28 27 27 27 27 26 26 27
29 29 29 30 30 29 29 29 29 29 28 28 29 29 30 30 30 30 30 30 30 30 30 30 30 30 29 29 28 28 28 27 27 27 27 27 27 27
28 29 30 30 30 30 30 30 30 30 30 30 30 29 30 30 30 31 31 30 31 31 31 31 31 30 30 29 29 28 28 28 28 27 27 27 27 27
30 30 31 31 31 30 30 30 30 31 31 31 31 30 29 29 30 30 30 31 31 31 31 32 32 31 31 31 31 30 29 29 29 28 28 28 28 28
31 31 31 31 31 30 29 29 30 31 32 32 31 31 30 30 30 31 31 31 31 31 31 32 31 31 31 32 31 31 31 30 30 29 29 29 29 29
31 31 31 31 31 30 30 30 31 31 31 31 31 31 31 31 32 32 32 32 32 31 31 31 30 30 31 31 31 31 31 30 30 30 30 29 29 29
32 32 32 31 31 31 31 31 31 31 30 30 30 31 31 31 32 32 32 32 31 31 30 31 31 30 30 31 31 31 31 30 30 30 30 30 30 30
34 33 33 33 32 32 32 32 31 31 30 30 30 31 31 32 32 32 32 32 31 30 30 31 31 31 30 30 30 30 30 29 30 30 31 31 31 30
34 34 34 33 33 33 32 32 31 31 30 31 31 32 31 31 31 31 31 31 31 31 31 32 31 30 30 29 30 30 30 30 29 30 31 31 31 31
34 33 33 33 33 33 32 32 32 32 32 32 32 32 31 31 31 30 30 29 29 29 30 30 30 30 29 29 30 30 30 30 30 30 30 31 31 31
35 34 34 34 33 33 33 33 33 32 31 31 31 31 30 29 29 28 28 28 28 28 28 28 28 28 29 29 29 30 31 31 31 30 30 31 31 31
34 34 34 34 34 33 33 33 33 32 31 31 29 29 28 28 27 27 27 27 27 27 27 27 27 28 29 29 29 29 30 30 30 30 31 31 31 31
33 33 33 34 34 34 33 32 31 31 30 29 28 27 27 27 27 27 26 26 26 26 26 26 27 27 27 28 28 29 29 29 30 30 30 31 30 30
32 32 32 32 31 32 32 31 31 30 30 29 28 28 28 28 27 27 26 26 27 27 27 27 27 26 26 26 26 26 27 27 28 28 28 28 29 29

GEFSNE_500_meanwind_342.txt.gz
Wind_Speed
21 20 20 20 20 20 20 20 21 21 20 21 21 21 22 22 21 22 22 22 22 22 22 22 23 23 23 23 23 23 23 22 22 22 22 21 21 21
21 21 21 21 21 21 22 22 22 22 21 22 22 22 22 22 22 22 23 23 23 23 23 23 23 23 24 23 23 23 23 23 23 23 22 22 21 21
22 22 22 22 22 22 23 23 23 23 22 22 22 22 23 23 23 23 23 23 23 24 24 24 24 24 24 23 23 23 23 24 24 23 23 23 22 22
24 24 24 24 24 24 24 23 24 24 23 23 23 24 24 24 24 25 25 25 25 25 25 25 25 25 25 25 24 24 24 24 25 25 25 24 24 23
25 25 25 25 25 25 25 25 25 24 24 24 24 24 24 25 25 26 26 26 26 26 26 26 26 26 26 26 26 26 26 26 25 25 25 25 25 24
27 27 27 27 27 27 27 27 26 26 26 26 25 25 25 26 26 26 27 27 27 26 26 27 27 27 27 28 28 28 27 27 26 26 26 26 26 26
29 29 29 28 28 28 28 28 27 27 26 26 26 26 26 27 27 27 27 27 28 27 27 27 27 27 28 28 28 28 28 28 27 27 27 27 27 27
30 30 29 29 29 28 28 28 28 27 27 27 27 27 27 27 27 27 27 28 28 28 27 27 27 27 27 28 28 28 28 28 28 28 28 29 28 28
30 30 30 29 28 28 28 29 28 27 27 28 28 28 28 28 27 27 28 28 28 28 28 27 27 27 27 28 28 28 28 29 29 29 29 29 29 29
31 31 31 30 30 28 28 28 28 28 28 28 28 28 28 28 28 28 28 28 28 28 28 28 28 27 27 27 28 28 28 29 29 29 29 29 30 30
31 31 31 31 31 30 29 29 29 29 29 30 29 29 28 29 29 29 29 29 29 29 29 28 28 28 28 28 28 28 29 29 29 29 29 28 28 29
32 31 32 32 32 31 31 30 29 30 31 31 30 30 29 29 29 29 30 30 30 30 30 29 29 29 28 29 29 29 29 28 29 29 28 28 28 28
33 33 33 33 33 32 32 32 31 31 32 31 31 31 30 30 30 30 31 31 31 31 31 31 30 30 30 29 30 30 30 29 29 29 28 28 28 29
34 33 33 33 32 32 33 33 33 33 32 32 32 32 31 31 31 31 31 31 32 31 31 31 31 31 31 30 30 31 31 30 30 29 29 29 29 29
35 34 33 33 33 33 33 34 33 32 32 31 31 30 30 30 30 30 30 30 30 30 30 30 30 29 30 30 30 31 30 30 30 30 30 29 30 30
34 33 33 34 33 33 33 33 33 33 32 32 31 31 30 30 30 30 30 30 30 30 30 30 30 30 30 30 30 30 30 29 30 30 31 30 30 30
34 33 32 33 33 33 32 32 32 33 33 32 32 32 31 31 31 31 31 31 31 30 30 30 30 30 30 30 30 30 29 29 30 30 31 31 30 30
33 32 32 33 33 33 33 33 33 32 32 32 32 32 32 31 31 31 31 32 31 31 31 30 30 30 30 29 30 30 29 29 30 31 31 31 31 31
32 31 31 32 33 32 33 33 33 33 33 33 33 32 31 31 31 31 31 31 31 31 31 31 30 30 30 30 30 31 30 30 30 31 31 31 31 31
31 31 31 32 33 33 33 33 33 33 33 33 33 32 31 31 31 31 31 31 31 31 31 30 30 30 30 30 30 30 31 31 31 31 32 32 32 32
32 32 32 33 33 34 33 33 33 33 33 33 33 32 31 31 31 31 31 30 31 31 31 30 30 30 30 31 31 31 31 32 31 31 31 31 32 32
32 32 32 32 32 33 33 32 32 32 32 32 32 33 32 32 32 31 30 30 30 30 30 30 30 31 31 31 31 31 31 31 30 29 30 31 31 30
30 31 31 31 31 31 31 31 31 31 31 31 31 31 31 32 31 31 31 31 31 30 30 31 31 31 32 32 31 31 31 31 30 30 30 30 31 31

GEFSNE_500_meanwind_348.txt.gz
Wind_Speed
22 22 22 22 22 22 22 22 22 22 22 22 22 22 21 20 20 21 21 21 21 21 21 20 20 21 21 21 21 21 21 21 20 20 21 21 20 19
23 23 23 22 23 23 23 23 23 23 22 22 23 23 23 22 22 21 21 22 22 22 22 22 22 21 21 22 23 23 22 22 22 22 22 21 21 21
25 24 24 24 24 24 24 24 24 24 23 23 23 23 24 24 23 23 22 22 23 23 23 23 23 23 22 23 23 24 23 23 23 23 23 21 21 21
25 25 26 26 27 27 26 25 25 25 25 25 25 25 25 25 24 24 24 24 24 25 25 25 24 24 24 24 24 24 24 24 24 24 23 22 21 21
26 26 26 27 27 27 27 27 26 26 26 26 25 26 25 25 25 25 25 25 25 25 25 25 25 25 24 24 24 24 24 24 23 23 23 22 22 22
26 26 27 28 28 28 28 28 28 28 28 27 27 26 26 26 26 26 26 26 26 26 25 25 25 25 24 24 24 24 24 24 24 23 23 23 23 23
28 28 29 29 29 29 29 30 29 29 29 28 28 27 27 27 27 27 27 27 27 27 26 26 25 25 25 24 24 24 23 24 24 24 24 24 24 24
30 30 30 30 30 30 30 30 30 30 30 29 29 28 28 27 27 28 28 28 28 28 27 27 26 25 25 25 25 24 24 24 24 24 24 24 24 24
31 31 31 31 31 31 31 31 31 31 31 31 30 30 29 29 28 28 28 28 28 28 28 27 27 26 25 25 24 24 24 24 24 25 25 25 25 25
32 31 32 32 32 32 31 32 31 31 31 31 31 30 30 29 29 29 28 27 28 28 27 27 26 25 25 25 25 24 24 24 25 25 25 25 26 26
33 33 32 32 32 33 33 33 32 32 32 32 31 31 30 29 28 29 29 28 27 27 27 27 26 26 25 25 26 25 25 25 26 26 25 26 26 27
34 33 33 33 33 33 34 34 34 33 32 32 31 30 30 29 29 30 30 30 29 29 29 29 28 28 28 27 28 28 27 27 26 27 27 27 27 28
34 34 33 33 34 35 35 36 35 34 33 33 32 31 30 29 29 30 30 30 30 29 29 30 30 30 30 29 29 29 28 27 27 27 27 27 27 28
34 34 34 34 35 35 35 36 35 34 34 34 33 32 32 31 30 30 30 30 29 29 29 28 28 29 29 29 28 28 28 28 27 27 27 27 28 28
34 34 34 34 34 34 34 34 33 33 33 33 32 31 31 30 30 30 30 31 30 29 29 28 28 29 30 29 29 29 28 28 28 28 27 27 28 28
34 33 34 34 34 34 34 33 33 32 32 32 31 30 30 29 29 29 30 30 29 28 28 28 28 28 29 29 28 28 29 28 28 28 28 27 27 28
33 32 33 32 32 32 33 33 32 32 32 32 32 31 31 30 30 29 28 28 28 28 27 27 27 27 27 27 28 28 28 28 28 29 29 28 28 28
32 31 31 31 30 30 31 32 31 31 31 32 32 32 31 30 30 30 30 29 28 28 28 28 28 28 28 27 27 27 28 28 28 28 28 28 28 28
31 30 30 29 29 29 30 30 30 29 30 31 31 31 31 31 31 30 30 29 29 28 28 28 28 29 30 29 29 28 28 28 28 28 28 28 29 29
30 29 28 28 28 29 29 29 29 28 29 30 30 30 30 30 30 31 30 30 29 29 29 29 29 30 30 30 30 30 30 30 29 29 29 29 29 29
28 28 28 28 28 28 28 28 28 29 29 29 29 29 29 29 29 29 29 29 29 29 29 29 29 30 30 30 30 29 30 30 30 30 30 30 30 30
28 28 28 28 28 28 28 28 28 29 30 30 29 29 29 29 28 28 28 29 29 29 29 29 30 30 30 30 30 30 30 30 30 31 31 31 31 31
26 27 28 28 28 29 28 28 28 29 29 29 29 30 30 29 29 28 28 28 29 29 29 29 30 30 30 30 30 30 30 30 31 31 31 31 31 31

GEFSNE_500_meanwind_354.txt.gz
Wind_Speed
23 23 24 24 24 23 23 22 22 22 22 22 22 21 21 21 20 20 20 21 21 21 21 21 21 21 21 21 21 20 20 21 21 21 21 21 21 21
24 24 24 25 26 25 24 24 24 23 23 23 22 22 22 22 22 22 22 22 22 22 22 23 23 23 23 23 23 22 22 22 22 22 22 22 22 21
25 26 26 26 26 27 26 25 25 24 24 23 23 23 23 24 24 24 23 23 23 23 24 24 24 24 24 24 24 23 23 23 23 23 23 23 23 22
26 26 26 26 26 26 27 27 26 26 25 25 24 24 24 25 25 25 25 25 25 24 25 25 26 25 25 25 25 24 24 23 23 24 24 24 23 23
27 28 28 28 27 27 27 28 27 27 27 27 27 26 25 25 26 26 26 25 25 25 25 25 25 25 26 26 25 25 25 25 24 24 24 24 24 24
27 27 28 28 28 28 28 29 29 28 27 28 28 28 27 27 27 27 27 27 26 26 26 26 26 26 26 26 26 26 26 26 26 25 25 25 25 25
27 28 28 28 29 29 29 29 29 29 29 28 28 29 29 29 29 29 29 28 28 27 27 27 26 27 27 27 27 27 27 26 26 26 26 26 25 26
29 29 29 29 29 30 31 30 31 30 30 29 29 30 30 30 30 30 29 28 28 28 28 28 28 27 27 27 27 28 28 27 26 26 26 26 26 26
30 30 30 30 30 31 32 32 32 32 32 31 31 31 31 31 31 30 29 29 28 28 28 28 29 28 28 27 27 28 28 28 27 27 27 26 26 27
32 31 32 32 32 32 32 33 33 33 33 33 33 33 32 32 32 31 30 30 30 30 30 29 29 29 28 28 28 28 28 28 28 27 26 26 26 26
33 33 33 33 33 33 33 33 33 33 34 34 34 34 33 33 32 31 31 31 30 31 30 30 30 29 29 30 30 30 30 29 29 29 28 27 27 27
34 34 35 35 35 35 34 34 34 34 34 35 34 33 34 33 32 31 31 31 31 31 31 31 30 30 30 30 30 31 31 31 30 29 29 28 28 28
35 35 36 35 36 36 36 35 34 34 34 34 33 33 33 33 32 31 31 31 31 31 31 31 31 31 31 31 31 31 31 31 30 30 29 29 28 29
35 35 36 36 36 35 35 34 34 34 34 34 33 32 32 32 31 31 31 31 31 31 31 30 30 30 30 30 30 30 30 30 30 30 30 30 29 29
35 36 35 35 34 34 34 34 34 34 33 33 32 31 31 32 31 31 31 31 31 30 29 29 29 29 30 30 30 30 30 30 30 30 31 30 30 30
35 35 35 34 34 33 34 34 33 33 32 31 30 30 30 30 31 30 30 30 30 29 29 29 28 29 29 29 30 30 31 30 30 31 31 31 31 31
35 34 33 32 32 32 32 32 32 32 31 31 31 30 29 29 29 29 29 28 29 29 29 29 29 29 29 29 30 31 31 32 32 32 32 32 32 32
33 32 31 31 31 31 31 30 31 31 31 31 31 30 30 29 28 27 28 28 27 27 28 28 28 28 29 29 29 30 31 31 32 33 33 33 32 32
32 30 30 29 29 30 30 30 30 30 30 30 31 31 31 30 30 29 28 27 27 27 28 28 28 29 29 29 29 30 30 31 31 33 33 32 32 32
29 29 28 28 29 29 28 28 28 28 29 30 30 30 30 30 30 30 28 27 27 27 27 27 27 28 28 28 29 29 30 30 30 31 32 33 32 32
28 28 28 28 28 28 27 27 28 28 29 30 30 30 30 30 29 29 28 27 27 27 27 26 26 27 27 28 28 28 28 29 29 30 31 32 32 32
28 28 28 29 28 27 27 27 28 29 29 30 29 29 29 29 29 29 28 27 27 26 26 26 26 26 27 27 27 27 28 28 29 30 31 32 33 32
27 28 28 27 27 27 27 28 28 28 29 29 29 28 28 28 28 28 27 26 26 27 27 26 26 26 26 26 27 27 27 28 29 30 31 31 32 32

GEFSNE_500_meanwind_360.txt.gz
Wind_Speed
24 23 23 24 24 24 24 24 24 23 23 23 24 25 25 24 25 24 24 23 24 24 23 23 22 22 22 22 22 22 22 22 21 20 20 20 21 21
26 26 25 26 26 25 25 24 25 25 24 25 25 26 26 27 27 26 25 25 25 25 24 24 23 23 23 23 24 24 23 23 23 22 21 22 21 21
26 26 26 27 28 28 27 26 26 26 26 26 27 27 28 28 27 27 27 26 26 26 26 25 25 25 24 24 25 25 25 24 24 24 23 23 23 23
27 27 27 27 29 29 29 28 28 28 28 27 27 28 28 28 28 28 27 27 27 27 27 26 26 26 26 26 27 27 27 26 26 25 25 25 25 24
28 28 29 29 30 30 30 29 29 29 29 29 28 28 28 28 29 29 28 28 28 28 28 28 28 27 26 26 27 27 28 28 27 27 26 26 25 25
29 29 29 30 30 30 29 29 29 30 31 31 31 30 29 29 30 30 30 30 30 29 29 29 28 28 27 27 28 28 28 29 29 28 27 27 26 26
30 30 29 30 30 30 30 29 30 30 31 31 31 31 30 30 30 31 31 31 30 30 30 30 30 30 29 28 28 28 28 29 29 28 28 28 27 27
31 31 30 30 31 30 30 30 31 31 31 32 32 32 32 31 31 31 31 31 30 30 30 30 30 30 29 28 28 29 29 29 29 29 29 29 28 28
31 31 31 31 31 31 31 31 31 32 32 32 32 32 32 31 31 32 32 32 31 30 30 29 29 29 29 29 29 29 29 30 29 29 29 29 29 29
33 33 33 33 32 32 32 32 33 33 33 32 32 32 32 32 32 33 33 32 31 31 31 30 30 30 30 29 30 30 30 30 31 30 30 30 30 29
34 34 34 34 34 34 34 34 34 35 34 33 33 33 34 34 34 34 33 33 32 31 31 31 30 31 30 30 31 31 31 31 31 31 31 31 31 31
35 35 35 35 35 35 35 35 35 35 35 35 34 34 34 35 35 34 34 33 33 31 30 31 31 31 30 30 31 31 31 32 32 31 31 31 31 31
36 36 36 36 36 36 36 36 36 35 35 36 36 35 34 34 34 34 34 34 33 32 31 31 31 31 31 31 31 30 31 31 32 32 31 31 31 31
37 37 37 37 37 37 36 36 36 35 35 36 36 35 35 34 33 33 33 34 34 33 32 32 32 32 32 32 32 31 31 31 31 31 32 32 32 32
38 38 38 38 38 37 37 36 35 35 35 34 35 35 35 34 34 34 34 34 34 34 33 33 32 32 32 32 32 32 32 32 32 32 32 32 32 33
38 38 38 38 37 37 36 36 35 35 34 34 34 34 34 35 35 34 34 34 34 33 33 33 32 32 32 31 31 31 31 31 31 32 33 33 33 33
39 38 38 37 37 35 35 35 34 34 34 34 34 34 34 34 34 34 34 33 33 33 32 32 32 32 30 30 30 30 31 30 30 31 30 30 31 32
38 38 37 36 35 34 34 34 34 34 34 34 34 33 33 32 32 33 33 33 33 32 32 31 31 29 29 29 29 29 30 30 30 30 31 31 31 31
36 35 34 34 34 33 33 33 33 33 33 32 32 32 32 31 31 32 32 32 31 31 30 30 29 28 28 28 28 28 28 29 29 30 30 30 30 31
34 34 33 32 32 31 30 30 30 30 30 30 30 30 30 30 30 31 31 31 31 30 29 29 28 28 28 27 27 27 28 28 29 30 30 30 30 30
33 32 31 30 29 29 28 28 28 27 27 27 27 27 28 28 29 29 29 29 30 30 29 28 27 28 28 28 27 28 28 28 28 28 29 29 29 30
32 31 30 29 28 27 26 25 25 25 24 24 25 25 26 27 28 28 27 28 28 28 28 28 28 27 27 27 27 27 27 27 27 28 28 29 30 30
30 29 28 26 25 24 24 24 23 23 23 24 24 24 24 25 25 25 26 27 26 26 27 27 27 27 27 27 27 27 26 26 27 27 28 28 29 30